Las Vegas, NV

7:03 AM PDT on April 25, 2017 (GMT -0700)
McCarran International

Weather History for KLAS - October, 2012

Change the Weather History Date:

Sunday, October 7, 2012

  Actual Average Record
Temperature  
Mean Temperature 76 °F 73 °F  
Max Temperature 85 °F 85 °F 99 °F (1978)
Min Temperature 67 °F 62 °F 36 °F (1941)
Degree Days  
Heating Degree Days 0 0  
Month to date heating degree days 0 0  
Since 1 July heating degree days 0 1  
Cooling Degree Days 11 9  
Month to date cooling degree days 118 69  
Year to date cooling degree days 3889 3446  
Growing Degree Days 25 (Base 50)    
Moisture  
Dew Point 24 °F    
Average Humidity 18    
Maximum Humidity 27    
Minimum Humidity 8    
Precipitation  
Precipitation 0.00 in 0.00 in 0.03 in (1939)
Month to date precipitation 0.00 0.04  
Year to date precipitation 3.88 3.10  
Snow  
Snow 0.00 in 0.00 in 0.00 in ()
Month to date snowfall 0.0 0.0  
Since 1 July snowfall 0.0 0.0  
Since 1 September snowfall 0.0 0.0  
Snow Depth 0.00 in    
Sea Level Pressure  
Sea Level Pressure 29.83 in    
Wind  
Wind Speed 5 mph (SSE)    
Max Wind Speed 14 mph    
Max Gust Speed 17 mph    
Visibility 10 miles    
Events      
T = Trace of Precipitation, MM = Missing Value Source: NWS Daily Summary

Daily Weather History Graph

Daily Weather History Graph

Search for Another Location

Airport or City:

Trip Planner

Search our weather history database for the weather conditions in past years. The results will help you decide how hot, cold, wet, or windy it might be!

Date:

Astronomy

Oct. 07, 2012 Rise Set
Actual Time 6:41 AM PDT 6:14 PM PDT
Civil Twilight 6:15 AM PDT 6:40 PM PDT
Nautical Twilight 5:45 AM PDT 7:10 PM PDT
Astronomical Twilight 5:15 AM PDT 7:39 PM PDT
Moon 11:37 PM PDT (10/7) 1:13 PM PDT (10/7)
Length of Visible Light 12h 25m
Length of Day
11h 33m
Waning Gibbous, 55% of the Moon is Illuminated
Oct 7
Waning Gibbous
Oct 8
Last Quarter
Oct 15
New
Oct 21
First Quarter
Oct 29
Full

Hourly Weather History & Observations

Time (PDT) Temp. Dew Point Humidity Pressure Visibility Wind Dir Wind Speed Gust Speed Precip Events Conditions
12:56 AM 72.0 °F 28.9 °F 20% 29.77 in 10.0 mi SSW 9.2 mph - N/A   Partly Cloudy
1:56 AM 70.0 °F 30.0 °F 23% 29.78 in 10.0 mi SSW 6.9 mph - N/A   Partly Cloudy
2:56 AM 70.0 °F 32.0 °F 25% 29.79 in 10.0 mi Calm Calm - N/A   Partly Cloudy
3:56 AM 68.0 °F 33.1 °F 27% 29.79 in 10.0 mi SSW 5.8 mph - N/A   Partly Cloudy
4:56 AM 69.1 °F 28.9 °F 22% 29.81 in 10.0 mi Calm Calm - N/A   Partly Cloudy
5:56 AM 69.1 °F 24.1 °F 18% 29.83 in 10.0 mi SSE 3.5 mph - N/A   Partly Cloudy
6:56 AM 69.1 °F 19.9 °F 15% 29.85 in 10.0 mi ENE 5.8 mph - N/A   Clear
7:56 AM 70.0 °F 19.9 °F 15% 29.88 in 10.0 mi ENE 3.5 mph - N/A   Clear
8:56 AM 72.0 °F 19.9 °F 14% 29.91 in 10.0 mi East 6.9 mph - N/A   Clear
9:56 AM 75.0 °F 21.0 °F 13% 29.91 in 10.0 mi East 5.8 mph - N/A   Clear
10:56 AM 79.0 °F 16.0 °F 9% 29.91 in 10.0 mi ENE 11.5 mph - N/A   Clear
11:56 AM 79.0 °F 16.0 °F 9% 29.89 in 10.0 mi SE 5.8 mph - N/A   Clear
12:56 PM 82.0 °F 17.1 °F 9% 29.87 in 10.0 mi Calm Calm - N/A   Clear
1:56 PM 84.0 °F 18.0 °F 9% 29.83 in 10.0 mi East 4.6 mph - N/A   Clear
2:56 PM 84.0 °F 19.9 °F 9% 29.82 in 10.0 mi SSE 5.8 mph - N/A   Partly Cloudy
3:56 PM 84.9 °F 21.0 °F 10% 29.80 in 10.0 mi SE 5.8 mph - N/A   Partly Cloudy
4:56 PM 84.0 °F 23.0 °F 11% 29.78 in 10.0 mi South 5.8 mph - N/A   Partly Cloudy
5:56 PM 82.9 °F 23.0 °F 11% 29.78 in 10.0 mi South 5.8 mph - N/A   Partly Cloudy
6:56 PM 81.0 °F 24.1 °F 12% 29.79 in 10.0 mi SSW 5.8 mph - N/A   Partly Cloudy
7:56 PM 80.1 °F 26.1 °F 14% 29.81 in 10.0 mi SW 5.8 mph - N/A   Partly Cloudy
8:56 PM 75.9 °F 26.1 °F 16% 29.82 in 10.0 mi SSW 6.9 mph - N/A   Clear
9:56 PM 73.9 °F 26.1 °F 17% 29.82 in 10.0 mi South 5.8 mph - N/A   Clear
10:56 PM 72.0 °F 25.0 °F 17% 29.82 in 10.0 mi SSW 8.1 mph - N/A   Partly Cloudy
11:56 PM 70.0 °F 26.1 °F 19% 29.81 in 10.0 mi SSW 6.9 mph - N/A   Partly Cloudy